Precipitable_Water
0.24 0.24 0.25 0.23 0.20 0.14 0.17 0.17 0.14 0.13 0.20 0.24 0.22 0.24 0.27 0.27 0.23 0.19 0.26 0.28 0.33 0.34 0.36 0.41 0.47 0.51 0.56 0.61 0.67 0.73 0.79 0.85 0.90 0.93 0.96 0.98 1.04 1.08 1.11 1.13 1.14 1.14 1.16 1.18 1.22 1.26 1.33 1.39 1.41 1.38 1.38 1.42 1.43 1.45 1.46 1.47 1.51 1.54 1.52 1.47 1.43 1.40 1.36
0.25 0.26 0.27 0.26 0.24 0.20 0.18 0.13 0.14 0.19 0.21 0.23 0.23 0.19 0.20 0.22 0.20 0.21 0.22 0.21 0.26 0.27 0.23 0.32 0.39 0.44 0.49 0.55 0.59 0.65 0.72 0.80 0.84 0.89 0.94 0.99 1.02 1.05 1.10 1.15 1.17 1.13 1.13 1.17 1.22 1.28 1.31 1.32 1.34 1.38 1.42 1.47 1.48 1.49 1.48 1.48 1.51 1.50 1.51 1.49 1.45 1.43 1.36
0.27 0.26 0.26 0.25 0.27 0.26 0.19 0.16 0.20 0.15 0.14 0.14 0.21 0.21 0.18 0.17 0.17 0.18 0.22 0.23 0.23 0.24 0.26 0.31 0.33 0.38 0.47 0.52 0.57 0.61 0.64 0.76 0.82 0.85 0.91 0.98 1.01 1.03 1.06 1.09 1.10 1.09 1.14 1.16 1.19 1.23 1.28 1.30 1.34 1.38 1.44 1.49 1.50 1.51 1.53 1.53 1.51 1.53 1.53 1.51 1.47 1.45 1.39
0.29 0.27 0.24 0.19 0.22 0.25 0.22 0.20 0.17 0.17 0.16 0.16 0.16 0.18 0.18 0.21 0.17 0.18 0.18 0.20 0.21 0.29 0.29 0.35 0.39 0.42 0.45 0.51 0.54 0.57 0.60 0.69 0.79 0.82 0.88 0.93 0.96 0.98 0.98 0.99 1.01 1.04 1.07 1.11 1.15 1.19 1.23 1.25 1.29 1.36 1.42 1.46 1.45 1.49 1.54 1.56 1.60 1.64 1.61 1.54 1.49 1.41 1.40
0.31 0.24 0.24 0.21 0.22 0.20 0.18 0.16 0.14 0.16 0.15 0.17 0.19 0.19 0.19 0.17 0.15 0.17 0.17 0.16 0.18 0.27 0.37 0.36 0.37 0.41 0.44 0.47 0.52 0.55 0.57 0.62 0.71 0.77 0.81 0.86 0.88 0.90 0.93 0.95 0.97 1.01 1.04 1.08 1.10 1.13 1.16 1.21 1.26 1.31 1.36 1.38 1.42 1.49 1.52 1.56 1.55 1.58 1.58 1.55 1.50 1.45 1.42
0.25 0.26 0.29 0.29 0.26 0.23 0.19 0.14 0.12 0.14 0.14 0.14 0.13 0.13 0.18 0.17 0.17 0.14 0.16 0.15 0.22 0.29 0.29 0.30 0.35 0.38 0.44 0.49 0.51 0.55 0.58 0.61 0.67 0.72 0.77 0.82 0.84 0.86 0.88 0.92 0.96 0.98 1.01 1.02 1.05 1.10 1.17 1.18 1.20 1.26 1.31 1.36 1.41 1.43 1.47 1.55 1.58 1.58 1.57 1.56 1.51 1.48 1.44
0.23 0.29 0.34 0.34 0.33 0.30 0.24 0.20 0.15 0.14 0.16 0.16 0.13 0.10 0.14 0.17 0.16 0.18 0.19 0.17 0.20 0.29 0.39 0.37 0.36 0.38 0.42 0.48 0.52 0.53 0.56 0.59 0.67 0.72 0.76 0.81 0.83 0.85 0.88 0.92 0.95 0.97 0.99 0.99 0.98 1.01 1.05 1.08 1.11 1.21 1.30 1.33 1.35 1.40 1.47 1.52 1.54 1.56 1.59 1.59 1.57 1.52 1.45
0.25 0.30 0.34 0.35 0.34 0.31 0.27 0.23 0.21 0.18 0.14 0.15 0.14 0.14 0.15 0.16 0.17 0.16 0.16 0.15 0.16 0.23 0.27 0.39 0.46 0.45 0.46 0.51 0.54 0.54 0.54 0.60 0.66 0.71 0.72 0.79 0.83 0.84 0.87 0.89 0.91 0.94 0.98 1.00 1.00 1.03 1.05 1.05 1.09 1.16 1.22 1.29 1.36 1.39 1.42 1.48 1.51 1.57 1.61 1.62 1.60 1.53 1.46
0.21 0.24 0.30 0.31 0.32 0.30 0.26 0.24 0.23 0.21 0.18 0.16 0.16 0.15 0.19 0.15 0.16 0.18 0.17 0.14 0.15 0.24 0.25 0.30 0.43 0.47 0.47 0.47 0.53 0.54 0.54 0.56 0.58 0.60 0.66 0.72 0.78 0.82 0.83 0.85 0.88 0.92 0.99 1.00 0.99 1.01 1.04 1.09 1.11 1.13 1.20 1.27 1.31 1.35 1.40 1.43 1.50 1.59 1.63 1.64 1.59 1.53 1.46
0.16 0.15 0.17 0.21 0.23 0.24 0.25 0.27 0.25 0.23 0.21 0.18 0.15 0.13 0.14 0.14 0.15 0.16 0.17 0.16 0.18 0.25 0.29 0.28 0.31 0.38 0.42 0.47 0.49 0.56 0.56 0.54 0.56 0.59 0.68 0.70 0.74 0.76 0.81 0.86 0.90 0.92 0.96 0.98 1.00 1.02 1.06 1.13 1.16 1.15 1.17 1.22 1.27 1.32 1.36 1.43 1.49 1.56 1.61 1.64 1.60 1.52 1.46
0.21 0.20 0.22 0.30 0.31 0.27 0.24 0.25 0.26 0.24 0.21 0.21 0.17 0.14 0.13 0.11 0.15 0.18 0.19 0.19 0.22 0.26 0.27 0.28 0.28 0.32 0.37 0.42 0.45 0.53 0.56 0.61 0.60 0.59 0.65 0.70 0.74 0.78 0.83 0.87 0.90 0.92 0.94 0.95 1.00 1.03 1.07 1.12 1.17 1.17 1.17 1.19 1.22 1.26 1.33 1.42 1.48 1.54 1.58 1.60 1.58 1.52 1.46
0.28 0.29 0.26 0.30 0.34 0.29 0.27 0.27 0.26 0.27 0.24 0.22 0.19 0.15 0.12 0.13 0.14 0.13 0.20 0.24 0.22 0.23 0.33 0.37 0.33 0.33 0.34 0.39 0.45 0.53 0.57 0.70 0.71 0.61 0.65 0.69 0.72 0.78 0.82 0.83 0.85 0.85 0.87 0.94 0.98 1.02 1.06 1.11 1.16 1.19 1.17 1.16 1.18 1.22 1.28 1.37 1.47 1.52 1.56 1.55 1.55 1.52 1.46
0.32 0.31 0.33 0.31 0.32 0.33 0.32 0.30 0.29 0.28 0.28 0.25 0.21 0.19 0.17 0.15 0.13 0.12 0.15 0.19 0.22 0.24 0.27 0.34 0.40 0.42 0.45 0.40 0.40 0.47 0.65 0.65 0.72 0.75 0.71 0.74 0.77 0.83 0.83 0.83 0.87 0.89 0.96 1.01 1.00 1.03 1.07 1.10 1.15 1.19 1.22 1.24 1.28 1.32 1.36 1.40 1.43 1.47 1.53 1.52 1.52 1.51 1.46
0.33 0.33 0.31 0.35 0.32 0.31 0.34 0.32 0.30 0.30 0.29 0.26 0.23 0.21 0.21 0.20 0.17 0.14 0.15 0.18 0.18 0.23 0.27 0.30 0.38 0.45 0.45 0.52 0.47 0.45 0.59 0.68 0.70 0.71 0.78 0.79 0.79 0.81 0.83 0.86 0.90 0.96 1.02 0.99 0.98 1.02 1.07 1.11 1.13 1.18 1.21 1.23 1.24 1.24 1.27 1.34 1.38 1.45 1.52 1.50 1.49 1.49 1.44
0.32 0.33 0.33 0.31 0.34 0.32 0.31 0.31 0.30 0.29 0.29 0.27 0.26 0.25 0.23 0.23 0.20 0.19 0.17 0.15 0.18 0.22 0.24 0.30 0.36 0.45 0.51 0.52 0.53 0.50 0.47 0.59 0.69 0.74 0.77 0.82 0.85 0.88 0.93 0.94 0.95 0.97 0.93 0.88 0.93 0.99 1.03 1.09 1.15 1.18 1.20 1.24 1.26 1.26 1.28 1.33 1.37 1.43 1.46 1.46 1.48 1.46 1.41
0.33 0.34 0.33 0.33 0.33 0.33 0.32 0.33 0.31 0.29 0.29 0.27 0.26 0.25 0.25 0.22 0.20 0.20 0.19 0.18 0.15 0.18 0.25 0.26 0.27 0.35 0.42 0.44 0.50 0.53 0.50 0.48 0.63 0.77 0.80 0.74 0.78 0.83 0.86 0.92 0.90 0.85 0.82 0.86 0.93 0.98 1.01 1.05 1.10 1.11 1.13 1.17 1.21 1.25 1.29 1.31 1.35 1.42 1.42 1.42 1.42 1.42 1.42
0.34 0.38 0.36 0.35 0.34 0.33 0.31 0.29 0.31 0.35 0.32 0.31 0.29 0.28 0.26 0.25 0.23 0.20 0.19 0.18 0.21 0.22 0.24 0.23 0.24 0.25 0.31 0.39 0.45 0.52 0.55 0.53 0.54 0.69 0.78 0.75 0.78 0.77 0.77 0.81 0.81 0.80 0.81 0.88 0.93 0.96 1.02 1.05 1.07 1.11 1.12 1.13 1.16 1.21 1.26 1.29 1.37 1.40 1.38 1.38 1.38 1.39 1.44
0.35 0.39 0.42 0.40 0.35 0.29 0.24 0.29 0.36 0.38 0.36 0.34 0.29 0.28 0.27 0.27 0.26 0.24 0.23 0.22 0.24 0.26 0.27 0.24 0.24 0.26 0.26 0.29 0.41 0.47 0.52 0.55 0.55 0.59 0.65 0.74 0.88 0.96 0.93 0.88 0.85 0.87 0.92 0.95 0.96 0.94 0.94 0.98 1.02 1.05 1.10 1.10 1.09 1.15 1.20 1.29 1.36 1.39 1.36 1.35 1.36 1.37 1.41
0.37 0.40 0.42 0.38 0.30 0.29 0.32 0.37 0.39 0.39 0.38 0.40 0.39 0.34 0.30 0.29 0.30 0.26 0.26 0.26 0.24 0.23 0.23 0.24 0.25 0.28 0.32 0.32 0.31 0.37 0.43 0.46 0.50 0.52 0.59 0.63 0.66 0.79 0.90 0.87 0.88 0.92 0.94 0.94 0.93 0.91 0.91 0.95 1.01 1.06 1.09 1.09 1.09 1.12 1.18 1.25 1.32 1.35 1.35 1.32 1.32 1.33 1.34
0.42 0.39 0.40 0.33 0.32 0.40 0.46 0.45 0.41 0.41 0.40 0.41 0.41 0.38 0.37 0.37 0.44 0.46 0.47 0.35 0.40 0.41 0.41 0.40 0.41 0.38 0.39 0.39 0.35 0.32 0.37 0.45 0.46 0.45 0.50 0.56 0.64 0.70 0.91 1.03 0.99 0.92 0.94 0.97 0.94 0.92 0.94 0.99 1.05 1.07 1.06 1.08 1.08 1.09 1.16 1.18 1.24 1.30 1.33 1.31 1.27 1.27 1.27
0.36 0.38 0.39 0.39 0.43 0.41 0.44 0.43 0.44 0.45 0.41 0.41 0.41 0.35 0.41 0.54 0.54 0.46 0.45 0.49 0.50 0.47 0.50 0.46 0.42 0.38 0.33 0.30 0.35 0.37 0.34 0.37 0.47 0.53 0.53 0.56 0.61 0.66 0.70 0.84 1.08 1.14 1.12 1.07 1.07 1.07 1.05 1.05 1.06 1.06 1.05 1.08 1.07 1.08 1.12 1.15 1.17 1.22 1.28 1.27 1.24 1.22 1.20
0.44 0.39 0.37 0.39 0.37 0.33 0.38 0.45 0.54 0.54 0.59 0.56 0.56 0.46 0.48 0.66 0.64 0.60 0.57 0.53 0.51 0.53 0.51 0.47 0.44 0.41 0.32 0.27 0.29 0.45 0.58 0.60 0.52 0.44 0.47 0.49 0.50 0.53 0.58 0.69 0.77 0.92 1.02 1.03 1.04 1.06 1.11 1.12 1.13 1.13 1.12 1.09 1.09 1.09 1.09 1.10 1.10 1.13 1.19 1.21 1.22 1.18 1.16
0.42 0.40 0.37 0.37 0.34 0.35 0.42 0.50 0.52 0.57 0.63 0.61 0.57 0.46 0.42 0.72 0.71 0.68 0.69 0.64 0.63 0.61 0.55 0.53 0.48 0.39 0.33 0.34 0.40 0.57 0.60 0.57 0.56 0.51 0.52 0.57 0.49 0.47 0.49 0.50 0.58 0.76 0.87 0.93 0.95 1.03 1.09 1.11 1.19 1.19 1.15 1.09 1.07 1.05 1.06 1.07 1.06 1.06 1.10 1.17 1.20 1.17 1.14
0.45 0.43 0.39 0.37 0.40 0.39 0.49 0.54 0.55 0.58 0.69 0.65 0.54 0.39 0.44 0.78 0.83 0.83 0.75 0.67 0.64 0.64 0.64 0.62 0.55 0.49 0.40 0.44 0.54 0.71 0.72 0.69 0.68 0.55 0.51 0.52 0.61 0.56 0.50 0.51 0.54 0.60 0.76 0.85 0.91 0.91 0.95 0.98 1.05 1.15 1.19 1.14 1.05 1.03 1.03 1.04 1.02 1.00 1.01 1.09 1.17 1.19 1.19
0.46 0.43 0.45 0.45 0.44 0.59 0.61 0.65 0.65 0.63 0.72 0.64 0.45 0.38 0.58 0.89 0.89 0.86 0.79 0.75 0.73 0.72 0.67 0.65 0.56 0.70 0.71 0.77 0.82 0.83 0.74 0.67 0.66 0.69 0.69 0.66 0.63 0.64 0.65 0.59 0.65 0.74 0.76 0.83 0.99 0.99 1.00 1.07 1.13 1.16 1.20 1.18 1.11 1.04 1.02 1.03 1.00 0.97 0.98 1.05 1.16 1.26 1.30
0.43 0.45 0.45 0.47 0.52 0.72 0.71 0.72 0.73 0.76 0.62 0.46 0.47 0.85 1.03 1.01 0.91 0.90 0.86 0.78 0.78 0.76 0.71 0.71 0.72 0.77 0.84 0.86 0.84 0.78 0.74 0.73 0.77 0.80 0.73 0.68 0.71 0.81 0.87 0.97 0.80 0.68 0.86 0.94 0.98 1.03 1.03 1.01 1.07 1.14 1.17 1.16 1.13 1.09 1.07 1.03 1.01 1.03 1.05 1.10 1.23 1.36 1.41
0.46 0.46 0.46 0.47 0.39 0.65 0.73 0.78 0.70 0.79 0.60 0.69 0.93 1.03 1.00 0.99 0.96 0.89 0.89 0.85 0.84 0.82 0.75 0.79 0.78 0.79 0.80 0.80 0.81 0.82 0.79 0.76 0.77 0.81 0.84 0.86 0.79 0.71 0.76 0.86 1.03 1.10 1.01 1.09 1.14 1.14 1.13 1.03 1.02 1.10 1.16 1.17 1.16 1.17 1.14 1.11 1.13 1.17 1.24 1.29 1.37 1.45 1.51
0.48 0.45 0.44 0.47 0.59 0.71 0.77 0.72 0.62 0.77 0.86 1.00 1.08 1.00 0.94 1.02 0.99 0.93 0.86 0.85 0.89 0.88 0.79 0.74 0.75 0.78 0.77 0.79 0.84 0.83 0.82 0.84 0.85 0.87 0.88 0.83 0.89 0.98 0.95 0.89 1.04 1.15 1.11 1.12 1.19 1.32 1.41 1.52 1.60 1.67 1.68 1.51 1.33 1.23 1.17 1.20 1.30 1.41 1.48 1.49 1.54 1.57 1.63
0.60 0.57 0.64 0.80 0.89 0.95 0.93 0.85 0.92 1.00 1.08 1.08 1.07 1.03 1.01 0.96 0.96 1.00 0.88 0.87 0.91 0.89 0.82 0.78 0.76 0.74 0.80 0.82 0.86 0.82 0.84 0.87 0.85 0.86 0.89 0.89 0.88 0.86 0.85 0.94 1.03 0.95 1.05 1.12 1.16 1.22 1.33 1.39 1.40 1.36 1.47 1.68 1.88 1.62 1.33 1.43 1.47 1.54 1.65 1.73 1.71 1.71 1.75
0.80 0.79 0.86 0.89 0.93 0.93 1.01 1.01 0.97 0.96 1.01 1.06 1.08 1.03 0.97 0.98 0.98 0.96 0.91 0.93 0.94 0.92 0.91 0.79 0.78 0.78 0.83 0.84 0.85 0.87 0.88 0.88 0.91 0.93 0.95 0.96 0.94 0.93 0.93 0.92 0.95 1.02 1.01 0.99 1.06 1.21 1.40 1.52 1.54 1.56 1.54 1.51 1.50 1.84 2.05 1.89 1.75 1.75 1.87 1.90 1.95 1.97 2.04
0.62 0.54 0.78 0.84 0.93 0.96 1.11 1.06 1.04 1.03 1.04 1.02 1.01 0.98 0.98 1.01 1.01 1.00 1.00 0.99 0.97 0.96 0.93 0.86 0.80 0.79 0.82 0.81 0.85 0.89 0.90 0.90 0.91 0.93 0.94 0.98 0.96 0.96 0.97 1.00 1.01 1.02 1.05 1.01 1.00 1.04 1.10 1.27 1.42 1.59 1.65 1.57 1.56 1.72 1.93 2.16 1.82 1.70 1.70 1.90 2.02 2.12 2.11
0.62 0.62 0.79 0.90 0.99 1.03 1.15 1.14 0.99 0.90 0.95 0.98 1.01 1.01 1.02 1.02 1.02 1.00 0.98 0.98 0.96 0.97 0.89 0.89 0.83 0.81 0.83 0.80 0.82 0.85 0.88 0.91 0.94 0.97 0.98 1.00 1.03 1.07 1.08 1.09 1.08 1.05 1.05 1.06 1.09 1.10 1.11 1.22 1.32 1.41 1.46 1.55 1.67 1.87 1.94 2.11 2.18 1.90 1.72 1.69 1.84 1.94 2.00
0.71 0.77 0.82 0.86 0.92 0.96 1.03 1.17 1.14 1.00 0.93 0.91 0.91 0.95 0.95 0.96 0.93 0.95 0.97 0.96 0.93 0.91 0.88 0.89 0.85 0.80 0.81 0.84 0.86 0.85 0.87 0.89 0.91 0.95 0.99 1.03 1.09 1.13 1.13 1.12 1.10 1.07 1.10 1.12 1.14 1.09 1.10 1.25 1.39 1.42 1.40 1.39 1.52 1.62 1.89 2.11 2.03 2.09 2.01 1.96 1.93 1.75 1.95
0.57 0.62 0.76 0.85 0.71 0.71 0.87 1.02 1.08 1.04 0.98 0.93 0.90 0.91 0.89 0.92 0.91 0.92 0.89 0.89 0.90 0.88 0.89 0.88 0.87 0.83 0.85 0.88 0.90 0.87 0.87 0.89 0.94 0.99 1.02 1.05 1.05 1.14 1.21 1.22 1.21 1.19 1.18 1.19 1.21 1.24 1.29 1.34 1.38 1.40 1.38 1.45 1.48 1.57 1.71 1.94 2.05 2.05 1.91 1.89 1.94 1.85 1.86
0.58 0.76 0.87 0.94 0.95 0.91 0.94 1.02 1.09 1.09 1.07 0.98 0.90 0.86 0.85 0.86 0.89 0.90 0.88 0.85 0.85 0.86 0.88 0.92 0.90 0.90 0.90 0.90 0.93 0.90 0.91 0.96 1.01 1.03 1.06 1.07 1.10 1.13 1.22 1.26 1.27 1.26 1.24 1.30 1.35 1.35 1.39 1.43 1.50 1.54 1.47 1.43 1.49 1.58 1.76 1.79 1.83 1.77 1.77 1.77 1.77 1.63 1.55
0.79 0.85 0.89 0.98 0.98 0.95 1.00 1.07 1.12 1.12 1.11 1.03 0.93 0.91 0.88 0.87 0.87 0.89 0.88 0.87 0.83 0.83 0.86 0.90 0.94 0.96 0.97 0.96 0.95 0.94 0.97 1.02 1.06 1.10 1.15 1.21 1.23 1.24 1.28 1.30 1.34 1.37 1.37 1.36 1.41 1.48 1.55 1.56 1.60 1.62 1.46 1.35 1.51 1.69 1.80 1.81 1.86 1.68 1.68 1.65 1.54 1.50 1.49
0.73 0.89 0.94 1.01 1.05 1.06 1.08 1.11 1.15 1.18 1.16 1.12 1.01 0.94 0.90 0.88 0.90 0.90 0.86 0.84 0.85 0.85 0.84 0.86 0.90 0.97 0.98 0.98 0.99 0.99 0.98 1.01 1.07 1.12 1.18 1.24 1.31 1.31 1.33 1.35 1.40 1.43 1.36 1.37 1.43 1.55 1.59 1.57 1.52 1.58 1.64 1.65 1.72 1.71 1.68 1.78 1.85 1.75 1.70 1.59 1.52 1.49 1.49
Wind_Speed
24 22 22 24 23 20 19 23 27 25 23 23 21 20 20 19 20 22 23 23 22 21 20 19 19 20 22 22 21 22 23 24 25 25 25 27 26 25 24 24 25 24 24 24 24 24 25 26 26 26 25 24 23 23 23 23 23 23 24 23 23 23 23
26 25 23 24 26 24 20 22 24 21 20 24 23 21 20 19 20 21 23 25 23 21 21 20 20 20 22 23 21 21 22 23 25 25 26 27 26 24 24 25 25 24 24 24 24 24 25 27 27 27 26 25 24 23 23 24 23 23 23 23 23 23 23
25 25 24 24 26 27 25 21 20 20 23 24 23 22 20 21 22 21 21 24 23 23 22 21 22 21 21 22 22 21 20 21 24 26 27 28 26 24 23 24 25 25 24 23 23 24 26 27 27 26 26 25 24 24 24 24 24 24 23 23 23 23 23
23 24 26 26 25 26 27 24 22 22 23 23 23 23 21 20 20 20 21 22 23 24 23 21 21 21 21 21 22 22 21 21 24 26 27 27 27 25 23 23 24 25 25 24 24 24 26 27 26 26 25 25 25 25 25 25 24 24 23 23 22 22 23
25 26 28 28 26 25 27 28 27 25 23 22 22 24 25 24 20 19 20 22 23 24 23 21 21 21 22 22 22 23 22 21 24 27 28 28 27 26 25 24 24 24 25 25 25 25 25 26 26 25 26 27 27 27 26 25 25 24 24 23 22 22 22
26 27 28 28 28 27 27 28 29 28 24 22 22 23 26 27 24 21 19 20 23 23 21 22 23 21 21 22 22 24 24 23 25 28 28 28 28 27 27 26 25 25 25 25 24 24 25 26 26 26 27 27 28 28 27 26 25 24 24 24 23 22 22
27 26 26 28 30 29 28 28 29 29 27 25 23 21 22 24 25 24 22 21 23 23 21 19 20 21 21 21 22 23 24 24 25 27 27 28 29 28 28 28 27 26 26 25 24 23 24 27 27 27 27 27 28 29 28 27 26 25 24 24 23 23 23
28 27 26 28 30 30 30 30 29 30 31 30 26 23 20 22 24 23 22 23 24 24 23 20 18 18 19 20 21 22 23 23 24 26 27 28 29 29 28 28 27 26 26 25 24 23 23 26 27 27 27 27 28 29 29 28 27 26 25 24 24 24 23
28 28 26 27 31 31 29 29 29 30 32 32 29 26 23 23 25 24 21 22 22 21 22 22 21 19 18 19 20 21 22 23 24 25 26 28 30 30 30 29 27 26 26 25 24 23 23 24 26 27 27 27 27 28 29 28 27 26 25 24 24 24 24
28 30 28 25 28 30 29 28 29 31 32 32 31 28 26 24 26 27 25 23 23 21 22 25 26 23 20 18 18 19 21 23 24 23 24 27 29 29 30 29 27 26 26 25 24 23 23 24 26 27 27 26 26 27 28 28 27 27 26 25 25 25 25
32 31 30 26 25 28 31 31 30 30 30 31 31 30 29 27 24 25 28 26 24 23 22 24 26 25 23 20 17 17 18 21 22 22 24 27 29 28 28 28 27 26 26 26 25 24 24 24 25 26 27 26 26 26 27 28 28 27 26 25 25 26 26
36 32 31 30 28 28 31 32 32 32 30 30 31 32 34 29 24 25 27 25 24 24 22 21 21 21 23 23 20 17 16 16 18 20 23 26 28 27 26 27 28 27 26 26 25 25 25 25 25 25 26 26 25 25 26 26 27 27 27 26 26 26 26
39 36 33 33 33 31 30 31 32 33 33 32 32 33 33 31 29 30 28 24 24 24 24 23 21 19 20 22 23 21 18 16 15 17 19 23 25 25 24 25 27 27 27 26 25 25 26 25 25 25 26 26 26 25 25 26 27 27 27 27 27 26 27
39 39 37 34 34 34 32 31 32 32 33 35 34 33 31 30 31 32 31 29 29 26 24 24 23 20 19 19 21 23 21 18 15 15 17 20 23 24 25 25 26 27 27 27 26 26 25 25 26 26 27 27 27 27 27 26 27 27 28 28 28 27 27
36 39 40 37 36 36 33 31 31 33 33 34 34 33 30 29 29 30 30 31 32 30 27 24 23 22 20 17 18 21 23 22 20 17 17 19 21 22 23 24 26 27 27 26 26 26 27 27 27 28 28 28 28 28 28 27 27 28 28 28 28 28 28
32 35 38 39 39 37 36 34 32 33 32 31 30 31 31 30 29 28 29 30 30 30 29 26 25 24 23 21 20 21 22 24 24 22 20 21 23 24 25 26 27 27 27 27 27 27 28 29 29 30 29 29 29 29 28 28 28 28 29 29 29 29 29
31 32 33 37 38 35 37 39 34 29 28 28 28 28 29 31 30 28 28 29 27 26 26 27 28 27 26 25 24 23 22 23 25 26 25 23 24 26 27 28 29 30 29 29 28 28 29 30 31 32 31 29 29 29 29 29 28 29 29 29 29 30 29
32 32 29 30 34 34 36 38 34 29 28 26 27 27 26 26 27 27 27 27 25 23 23 26 28 28 29 29 29 27 26 24 25 27 28 26 25 26 28 29 29 30 30 29 28 28 28 29 31 32 32 31 30 30 30 29 29 30 30 30 30 30 30
31 32 28 26 29 31 31 31 33 33 32 28 26 26 26 24 22 24 26 26 25 24 23 24 25 25 27 29 29 30 30 30 29 30 31 31 29 29 29 30 31 31 31 30 29 28 28 29 31 32 33 32 31 31 30 30 30 30 31 31 31 31 31
32 31 30 28 28 26 24 25 29 31 30 29 26 25 24 23 20 20 21 23 23 22 22 23 24 23 24 24 25 28 29 31 32 32 33 33 33 32 31 32 33 33 34 33 31 31 30 30 30 32 33 33 33 32 32 31 31 31 32 32 32 32 32
34 33 31 29 28 27 24 24 25 27 27 27 26 25 23 21 20 19 18 19 21 21 21 21 22 22 22 23 23 24 24 25 27 30 31 32 33 33 33 34 34 34 35 35 33 32 32 32 31 32 33 34 34 33 33 33 32 32 33 33 33 33 33
32 32 30 28 27 28 28 26 24 25 25 24 25 25 23 21 20 20 19 18 19 20 20 19 19 19 21 23 25 24 23 22 23 25 28 31 34 35 34 35 36 36 36 36 34 33 33 33 33 33 33 34 35 34 34 34 34 34 34 35 35 35 35
29 29 29 29 28 27 28 27 26 24 23 23 24 24 23 23 23 21 21 20 19 19 19 19 18 18 19 22 24 25 25 25 24 25 26 29 32 34 35 35 36 38 39 39 38 37 36 35 35 35 35 36 36 36 36 36 36 36 36 37 38 38 37
25 27 27 28 27 26 26 26 26 25 22 22 24 25 24 25 25 22 22 22 22 21 20 18 18 18 20 22 22 22 22 24 25 26 26 26 27 29 32 35 36 37 38 38 39 40 40 39 38 38 38 38 39 39 38 38 39 39 39 39 40 40 39
23 24 26 27 25 25 25 23 23 24 23 22 25 26 25 25 24 23 23 23 23 23 21 20 20 21 22 23 22 20 19 20 22 23 24 25 25 26 27 31 34 37 38 37 38 40 40 39 39 39 39 40 41 41 41 41 42 42 42 42 41 41 40
22 22 24 25 24 24 24 22 21 22 23 24 25 25 24 24 23 22 22 23 23 23 22 21 22 22 22 22 22 21 21 20 20 21 23 24 25 25 24 25 27 33 38 40 40 40 41 41 41 41 42 42 43 43 44 45 45 45 44 43 42 41 41
21 21 22 23 24 24 23 22 23 23 24 25 25 24 23 23 22 21 21 21 22 22 22 22 22 22 21 21 21 22 23 22 21 22 23 24 25 25 25 24 23 26 32 37 38 37 38 39 40 41 42 44 45 45 45 46 46 45 43 42 41 40 40
20 20 21 22 23 24 24 23 25 26 26 25 25 24 24 23 22 21 21 20 21 21 21 21 21 21 21 21 21 22 23 24 24 24 24 25 25 25 25 25 24 23 26 30 33 34 34 35 36 37 38 41 44 47 48 47 46 44 43 42 41 40 40
22 21 21 22 22 22 22 23 24 24 24 24 23 23 23 22 21 20 19 20 20 20 20 20 20 20 21 22 22 22 23 24 25 25 25 26 26 26 26 26 25 25 25 27 29 32 33 34 36 37 37 38 40 44 46 45 43 41 41 41 40 39 39
24 22 21 20 20 20 21 24 25 24 23 24 22 21 20 20 19 19 18 18 18 18 18 18 18 19 20 20 20 21 22 23 25 26 26 27 26 26 27 27 27 27 27 27 29 31 32 33 34 36 38 38 39 41 42 43 42 40 38 38 37 36 36
25 24 20 19 19 19 20 23 25 24 23 23 22 21 20 19 18 17 17 17 17 17 17 17 17 18 19 19 20 20 21 22 24 25 26 27 28 27 27 28 29 29 29 30 31 32 33 33 34 35 35 35 37 39 40 41 43 43 40 38 37 35 34
26 26 24 21 21 19 18 19 23 25 23 22 21 20 20 19 17 16 16 16 16 16 16 17 17 17 17 19 20 21 21 22 23 24 26 27 28 28 28 28 29 30 31 32 32 32 33 33 34 35 35 35 35 35 35 36 39 42 42 40 37 34 32
27 27 25 22 22 22 19 17 19 22 23 22 21 20 18 17 16 16 15 15 16 16 16 16 16 16 17 18 19 20 21 22 23 24 25 26 27 27 28 28 29 30 31 32 32 32 32 33 33 33 34 35 36 35 34 33 34 37 39 38 35 31 29
28 26 23 21 22 25 23 20 18 19 21 21 20 19 18 17 17 16 15 15 15 15 15 16 16 16 17 18 19 19 20 21 22 23 23 25 26 27 27 27 28 28 29 31 32 32 32 33 33 33 33 34 35 35 33 32 32 33 33 32 31 29 27
30 27 24 22 22 23 24 22 19 19 20 20 19 19 18 18 17 17 16 15 15 15 15 16 16 16 17 18 18 19 19 19 20 20 21 22 23 25 26 26 26 27 28 29 30 31 31 31 32 32 31 32 32 31 30 28 28 28 28 27 27 27 27
29 29 26 25 23 21 21 21 19 17 18 19 19 19 19 18 18 17 16 16 16 16 16 16 16 16 17 17 18 18 18 18 18 19 19 20 21 22 23 23 24 24 25 26 28 28 27 27 28 27 26 26 26 25 23 23 24 25 26 25 24 24 24
29 29 28 28 27 23 20 19 18 17 16 17 18 19 18 17 16 16 15 15 16 16 16 16 16 16 16 16 17 17 17 17 17 17 16 16 16 17 17 18 20 21 21 21 23 23 21 20 19 17 16 19 21 20 20 22 23 23 23 22 21 21 21
Wind_Direction
229 227 223 221 223 227 226 221 225 231 228 228 235 239 240 241 242 241 239 241 242 244 245 243 241 238 231 230 230 229 228 224 222 221 220 220 220 222 224 223 223 223 223 224 224 224 223 220 219 217 218 218 218 218 217 217 218 219 220 221 223 223 222
229 227 225 225 225 225 225 225 227 229 230 230 231 235 237 238 243 242 238 240 240 239 243 243 241 239 231 227 228 231 230 225 221 220 220 219 220 223 225 224 224 222 221 224 225 225 222 218 217 216 217 219 219 218 218 217 217 217 219 221 222 223 222
228 225 225 227 226 224 226 229 227 224 227 227 225 229 233 236 243 245 241 242 240 237 240 239 237 235 229 226 227 229 230 226 221 219 219 219 220 223 224 222 221 220 221 224 226 225 221 218 218 218 219 220 219 219 218 218 218 217 219 221 222 222 221
225 223 225 226 224 223 224 229 230 227 228 227 225 230 234 236 241 244 243 244 242 238 237 235 235 232 227 229 230 229 230 227 222 221 221 221 220 221 220 219 219 220 222 224 225 223 220 218 219 220 221 221 220 218 218 218 219 218 219 220 221 221 221
226 225 226 224 222 221 222 225 228 230 230 229 229 233 234 235 239 241 241 244 244 241 237 235 238 236 232 235 235 232 232 228 223 223 222 222 222 221 220 220 221 222 223 225 225 224 220 218 220 221 222 222 220 218 218 218 218 218 218 219 220 221 220
231 231 228 224 223 222 223 225 227 228 229 226 228 235 235 232 236 239 241 248 248 244 242 240 240 239 237 236 235 234 236 233 227 225 224 223 224 224 223 224 224 222 223 225 226 224 221 220 221 221 221 222 220 218 217 217 218 218 218 219 220 220 220
235 235 230 225 224 223 225 228 228 227 228 228 229 236 234 231 236 239 241 250 250 244 242 240 238 241 238 235 234 235 236 235 229 225 226 225 225 225 225 225 223 222 222 224 225 223 222 221 221 221 220 221 220 218 217 217 218 219 219 219 219 220 220
237 238 234 228 224 223 225 228 227 226 227 230 233 237 235 232 236 236 237 247 250 244 239 236 237 241 239 235 235 233 232 232 229 227 228 228 225 225 225 224 223 222 221 222 224 225 224 222 220 218 218 219 220 219 218 218 218 218 220 220 219 219 219
233 233 233 227 221 222 226 227 225 225 226 228 232 236 236 236 236 233 235 246 249 244 239 236 238 240 239 239 236 232 231 231 233 234 231 226 225 225 225 223 222 220 219 220 223 225 225 223 219 217 217 219 220 221 220 219 219 218 220 220 219 218 219
227 226 228 226 221 222 226 227 225 224 224 225 228 232 233 237 238 234 235 245 250 247 240 237 237 238 241 244 239 234 236 236 236 235 229 223 222 223 222 222 221 219 219 221 223 225 225 223 220 218 218 219 220 221 221 220 220 218 219 220 219 219 219
228 228 229 228 224 222 224 225 225 225 225 224 225 229 233 236 238 237 238 242 247 248 242 236 235 236 237 240 236 233 240 242 238 233 227 221 219 220 220 220 219 218 219 221 222 223 224 222 219 217 217 217 219 219 220 221 220 218 219 220 220 220 219
230 230 230 229 227 226 225 223 224 226 227 225 224 228 233 234 235 240 242 238 239 244 241 237 237 236 234 234 231 228 233 240 238 232 226 220 217 218 219 219 219 219 219 219 219 221 222 221 218 216 216 217 218 219 220 221 220 219 219 220 220 220 219
229 230 229 229 229 231 229 226 223 224 226 227 228 231 233 232 234 241 242 236 237 242 241 238 237 235 235 237 233 227 225 230 231 227 222 217 215 217 219 218 217 217 216 217 218 219 221 221 220 218 218 218 219 219 221 221 221 220 219 219 220 220 219
228 228 229 228 229 231 232 229 225 224 226 228 230 234 234 233 235 240 240 238 239 242 241 239 234 230 234 239 234 228 224 223 224 222 217 215 215 217 219 219 216 215 216 218 220 221 222 223 222 220 220 220 220 221 221 222 223 222 220 220 220 220 219
227 226 227 228 229 230 232 231 226 225 227 228 230 233 235 235 237 239 238 239 241 241 241 239 235 231 232 235 234 231 227 221 220 222 219 214 214 217 218 217 216 216 219 221 222 223 225 226 225 224 223 223 223 223 222 223 224 224 222 220 220 220 220
226 224 223 225 227 229 232 232 229 226 226 228 229 230 231 234 237 238 237 238 241 241 239 239 239 235 231 232 234 235 232 225 220 220 222 220 217 217 217 216 216 219 221 223 225 227 229 230 229 227 226 225 225 224 224 224 225 224 223 221 220 220 220
225 224 222 222 222 226 230 230 228 227 227 228 230 231 230 231 234 236 237 239 240 239 235 236 239 237 234 234 234 234 235 232 225 222 225 227 226 223 221 220 221 223 225 226 229 231 233 232 231 229 227 226 226 226 225 225 225 224 223 222 220 220 220
221 221 222 221 218 223 230 228 226 228 229 229 232 233 231 231 234 236 237 239 240 239 234 234 237 239 238 236 235 235 236 235 232 230 230 230 228 227 225 225 225 226 227 229 230 232 234 233 231 229 227 226 227 226 226 225 225 224 223 222 222 221 220
216 216 218 220 219 223 229 226 223 226 229 231 234 235 234 236 241 241 239 238 239 240 239 235 234 239 240 236 234 235 237 238 237 236 234 232 229 228 228 230 229 228 228 229 232 236 236 233 230 228 227 227 227 227 226 226 225 225 223 222 222 222 221
213 213 215 219 222 225 227 223 220 223 227 230 232 234 234 235 238 240 239 237 234 235 237 235 234 237 238 237 235 235 237 239 239 238 237 236 234 231 231 232 232 232 232 232 235 238 235 231 229 228 228 228 228 228 227 227 227 226 225 224 223 223 223
212 213 215 221 225 226 226 224 221 220 222 224 224 226 230 233 231 229 232 234 232 232 235 236 237 238 239 240 241 240 241 242 241 240 238 237 235 235 235 235 234 235 235 235 237 236 233 230 230 230 230 230 230 229 229 229 229 228 227 226 225 224 224
213 212 215 219 223 224 223 223 223 220 218 217 218 222 229 235 234 229 227 231 234 236 238 238 238 239 239 240 242 246 249 249 247 245 244 240 238 237 238 239 237 236 236 236 236 234 231 231 231 231 232 231 231 230 231 231 231 230 229 228 227 226 226
212 211 214 217 221 223 223 222 223 223 220 219 221 226 232 236 236 231 227 230 234 237 240 241 238 237 238 240 243 248 252 250 248 249 250 247 243 240 240 241 239 237 237 237 235 233 232 233 233 234 234 233 232 232 232 233 233 232 231 230 228 227 227
212 210 216 221 222 224 224 223 224 223 221 221 224 228 231 234 234 231 230 232 236 238 241 241 238 237 239 241 245 250 251 248 247 247 247 247 246 245 244 242 239 237 237 237 236 235 235 236 236 236 235 234 234 234 234 234 234 234 233 232 230 229 228
214 212 217 221 224 226 226 225 227 227 223 222 224 226 230 232 232 233 233 236 237 238 239 239 238 238 242 245 249 252 252 250 249 248 246 246 247 248 249 246 241 237 235 235 235 234 235 236 236 236 235 235 236 236 236 236 236 235 235 235 233 231 229
213 214 218 221 225 228 225 223 226 227 223 221 223 226 229 230 230 232 234 237 238 238 237 239 238 239 244 250 252 253 253 253 252 249 247 247 248 249 252 253 247 240 236 235 235 236 237 237 237 237 237 237 237 237 238 238 238 237 237 236 234 232 229
212 218 220 219 223 229 228 225 227 227 223 222 224 226 230 232 231 232 234 237 240 239 238 240 242 243 247 252 253 253 253 253 253 251 249 250 251 251 252 254 252 245 240 238 238 241 243 242 241 240 238 238 238 238 239 240 239 238 238 236 234 232 228
209 217 220 220 226 233 233 228 228 228 224 222 224 227 230 234 234 235 237 239 242 242 241 242 244 246 250 254 254 253 252 251 252 251 250 251 254 254 252 252 249 245 241 240 240 243 246 245 243 243 243 243 242 240 239 240 240 239 238 235 232 230 227
212 216 221 226 232 238 235 225 220 222 221 219 221 224 228 233 235 235 236 238 240 241 241 242 246 248 251 254 255 254 251 249 250 251 251 252 253 253 253 251 248 244 242 242 242 244 247 247 245 244 246 248 249 247 242 239 239 238 236 233 230 227 225
217 215 217 226 234 241 240 226 216 216 219 219 220 222 224 228 231 231 234 236 238 241 242 243 246 249 250 253 255 254 252 250 249 250 252 252 252 253 252 251 249 247 244 244 243 244 247 249 249 248 248 249 252 252 247 239 235 234 231 229 228 227 224
220 216 217 225 231 240 244 230 216 215 218 218 218 221 223 227 229 231 234 237 239 242 243 243 245 249 252 255 256 257 256 254 252 252 253 253 253 254 253 252 251 250 249 248 246 245 246 249 251 251 250 250 251 251 248 240 233 229 226 225 226 227 226
221 221 225 231 233 239 247 237 221 217 218 218 218 221 224 227 231 233 236 240 242 243 245 245 246 251 256 257 258 259 259 257 255 255 256 256 256 256 256 255 255 254 253 252 250 248 248 250 252 252 251 250 249 250 250 244 234 226 222 220 222 226 227
223 223 228 235 235 237 247 249 232 222 220 221 222 224 227 230 232 233 236 241 242 244 246 248 250 253 257 260 261 262 261 260 260 259 258 258 258 259 259 259 259 257 256 255 253 251 249 249 251 251 250 249 249 249 251 247 234 223 218 216 216 217 218
222 223 227 232 231 231 238 247 244 231 226 224 225 227 230 231 233 234 236 240 243 246 249 252 253 254 257 261 263 264 264 263 263 263 262 261 260 260 260 260 260 259 258 257 256 253 251 251 251 250 250 249 248 249 250 245 232 221 216 212 208 204 203
222 226 230 232 231 231 234 240 243 240 233 227 224 226 227 229 234 238 240 242 246 249 252 255 256 256 258 262 265 266 267 266 266 268 268 265 263 263 261 260 259 258 258 259 258 255 251 250 249 248 248 246 244 244 244 235 221 210 204 198 192 191 192
222 226 229 230 229 229 229 232 236 238 234 227 225 227 229 232 237 241 242 245 248 251 253 256 258 258 260 263 265 265 266 268 269 271 272 269 267 265 263 262 262 260 258 258 258 255 251 247 246 246 244 238 232 228 221 208 195 188 184 183 184 187 191
221 225 228 226 224 223 225 228 232 233 231 227 226 228 231 234 236 239 243 247 249 250 252 254 256 257 258 260 262 263 265 268 271 272 272 270 266 263 264 268 268 263 258 255 252 249 243 235 231 229 220 209 203 198 191 185 180 179 182 186 189 192 196